GFSSE_925_thetae_075.txt.gz
Theta_e
351 348 345 348 350 351 351 350 349 348 347 344 343 343 346 344 350 350 347 351 349 352 350 351 351 348 352 349 351 349 349 350 350 350 349 347 348 346 336 344 347 347 346
352 347 343 347 351 351 354 353 351 348 345 341 340 345 349 349 349 348 348 350 351 350 352 351 350 349 350 350 349 348 350 351 348 348 347 350 346 345 346 347 345 341 344
351 348 346 346 350 350 354 354 353 348 349 345 346 350 349 349 349 346 350 350 351 348 351 351 351 351 350 349 351 349 351 350 339 341 349 346 341 337 343 344 332 343 346
352 349 346 344 349 350 347 352 353 353 353 353 353 353 353 347 352 350 350 351 351 351 350 350 351 350 348 348 351 351 351 349 341 344 348 341 337 343 346 335 346 346 348
351 350 349 339 348 349 345 347 347 348 351 351 351 350 350 348 350 351 353 352 353 349 352 349 352 349 348 349 349 351 350 343 341 347 342 339 336 338 348 346 334 341 347
350 352 351 338 347 349 348 349 354 353 349 353 352 353 351 349 349 349 349 349 349 353 351 352 350 349 349 350 351 351 347 339 348 347 342 340 348 344 338 347 349 346 343
355 356 353 343 345 351 348 348 350 352 352 350 351 349 349 350 349 348 350 351 348 352 350 351 351 352 350 351 351 350 337 343 350 341 342 344 348 345 349 344 342 348 343
353 352 354 352 348 347 348 346 349 350 353 351 352 352 351 347 348 347 345 346 347 350 351 351 352 350 351 351 350 345 338 345 345 341 343 344 339 334 344 344 346 336 335
347 353 355 354 355 352 352 351 351 349 350 350 352 352 347 351 349 352 349 346 349 348 351 351 351 351 350 348 348 344 343 343 349 346 341 345 336 331 349 345 332 348 345
347 355 353 355 354 355 353 352 351 346 346 346 348 347 348 349 345 343 346 345 350 349 349 351 351 351 350 348 344 345 344 341 349 348 343 344 340 331 344 349 342 333 345
349 348 354 354 355 356 355 354 350 349 347 348 347 346 349 349 350 348 349 349 344 349 351 351 352 350 349 348 348 344 343 347 347 347 343 345 344 335 338 350 346 340 342
350 349 348 350 354 353 350 356 352 352 350 350 351 353 351 349 350 351 350 348 344 352 352 352 351 351 349 345 346 343 345 345 345 347 348 345 342 340 337 345 345 339 340
350 350 350 350 350 349 347 350 352 354 350 351 351 349 351 350 352 349 349 351 347 346 348 347 348 348 348 346 346 346 342 343 344 343 348 346 342 342 342 344 344 341 340
350 351 352 352 352 350 349 349 350 351 353 352 345 347 349 351 350 348 348 348 348 347 348 348 348 348 347 348 350 346 347 344 345 345 346 347 345 343 343 343 344 344 340
351 351 352 354 354 354 354 352 351 350 350 349 338 342 346 345 347 349 348 346 349 350 351 350 348 348 350 349 348 349 348 348 344 344 345 348 346 343 345 345 345 344 344
351 352 353 356 357 357 355 356 355 353 350 350 344 341 342 344 346 349 348 349 351 352 352 350 350 347 348 348 347 347 348 348 347 345 344 347 347 344 343 344 344 344 344
351 353 354 356 358 358 358 357 355 352 352 351 351 350 345 341 348 347 347 349 349 350 352 351 348 346 350 349 349 349 349 347 346 347 347 345 347 345 344 341 343 344 345
352 353 355 356 357 359 358 356 357 356 355 353 354 354 349 345 344 348 347 347 349 350 349 352 351 350 350 348 347 348 348 346 347 348 349 348 346 348 348 345 341 343 344
353 355 357 358 358 359 358 356 357 356 355 353 352 351 350 347 346 346 346 347 349 347 348 351 352 348 350 348 347 347 347 347 347 347 347 348 348 348 349 349 347 345 344
353 358 361 361 359 359 358 356 353 354 353 355 350 348 354 347 345 344 342 349 348 343 345 348 348 348 348 347 347 345 348 348 348 347 347 348 347 352 350 349 349 348 348
353 359 362 363 364 363 361 355 349 349 352 353 350 350 351 352 346 345 345 346 343 342 344 343 346 349 348 347 348 348 348 348 348 349 347 346 350 353 346 338 346 352 352
353 359 363 364 365 362 358 345 334 336 350 353 350 350 350 350 350 350 345 343 342 341 341 342 347 348 348 349 352 352 355 349 347 349 350 349 350 351 350 352 349 350 352
356 360 364 362 358 347 358 346 339 349 355 354 351 350 350 350 352 350 348 346 342 342 342 343 341 343 348 349 351 352 356 355 349 347 350 351 351 351 351 351 351 350 351
358 364 359 342 340 356 356 351 353 354 354 353 350 347 349 350 349 350 349 349 349 345 345 347 348 350 349 351 348 349 347 349 354 355 349 349 349 349 349 348 348 350 351
362 357 345 342 344 344 356 355 354 355 351 354 352 349 351 351 349 349 348 350 350 350 349 349 345 345 345 348 346 347 348 348 348 346 347 350 346 345 343 346 348 348 349
362 350 345 347 347 348 348 354 352 350 352 352 353 350 350 350 351 350 350 351 350 350 350 349 348 348 347 349 349 349 348 348 349 351 350 350 349 341 341 342 341 344 345

GFSSE_925_thetae_078.txt.gz
Theta_e
349 352 348 349 349 349 349 350 351 352 348 346 347 348 349 349 344 347 350 351 352 351 352 352 352 352 351 352 350 349 351 344 345 344 345 345 341 341 348 345 346 344 347
348 352 346 348 349 349 350 350 350 347 348 348 348 350 346 351 345 348 351 353 353 353 351 350 351 349 351 349 349 348 349 343 348 349 348 348 348 346 347 347 346 339 344
348 351 351 345 348 350 350 350 349 345 346 348 350 351 349 349 350 352 349 352 350 352 352 352 352 352 351 349 348 352 347 341 339 348 348 339 345 345 346 340 333 349 344
348 346 350 341 347 349 352 350 350 350 349 347 348 349 349 348 347 353 353 353 352 347 353 349 352 350 349 349 350 349 342 343 343 347 348 342 336 346 339 345 345 345 342
348 347 349 341 344 348 350 352 353 354 354 353 353 351 349 350 350 349 351 352 349 353 348 347 352 350 348 350 350 346 339 338 342 348 349 336 339 345 339 335 340 346 344
349 352 340 341 345 352 352 349 353 353 353 352 353 352 350 348 348 349 349 349 351 350 352 352 349 349 349 350 349 343 335 337 345 350 342 343 336 335 348 349 344 346 343
352 353 339 338 347 351 352 352 353 353 351 351 354 353 351 350 349 352 348 349 348 352 347 350 349 351 350 351 349 343 336 344 348 349 341 348 343 342 337 346 345 346 335
356 355 351 338 342 345 352 348 348 347 350 353 353 348 346 349 346 346 347 348 347 351 347 351 351 353 351 352 350 341 337 344 350 349 344 346 333 334 337 341 337 339 336
355 355 355 353 349 347 350 353 352 350 350 350 349 350 347 348 351 347 345 346 349 347 348 350 351 350 351 351 348 337 340 341 345 350 346 345 339 330 340 332 340 344 337
355 356 355 355 356 354 353 351 351 353 350 347 348 347 345 348 351 347 344 344 348 347 348 350 350 351 348 349 345 342 342 341 342 349 348 346 333 326 341 341 330 344 346
354 354 354 355 355 355 354 350 345 347 352 353 353 350 346 350 350 349 349 349 344 351 350 351 351 351 346 345 342 341 343 342 348 347 347 343 341 332 331 347 345 335 336
347 353 354 355 355 356 355 355 352 352 351 348 350 351 349 350 350 351 349 348 347 343 348 351 349 351 350 347 341 341 342 345 346 345 347 344 341 337 332 342 347 339 341
349 348 355 353 354 352 352 352 353 352 352 350 350 351 350 351 350 350 351 350 347 347 347 346 348 347 349 347 347 346 345 344 345 345 347 345 342 340 339 337 338 338 336
350 350 349 350 351 350 352 350 351 350 353 353 351 349 349 347 348 350 350 349 349 348 346 349 349 348 348 348 349 346 347 347 344 345 348 346 346 342 340 342 342 342 340
351 351 351 352 352 350 352 350 352 353 349 348 349 338 348 349 349 348 345 349 348 349 350 348 348 349 349 348 350 351 349 348 348 345 345 345 346 344 341 343 344 343 343
351 352 354 354 354 353 353 353 352 351 352 350 345 339 338 343 342 346 348 347 350 349 350 352 350 348 348 349 348 347 348 347 347 346 347 345 346 346 343 342 343 343 344
352 352 356 357 358 357 357 355 354 354 351 351 350 350 348 342 342 343 348 348 348 350 349 347 346 348 350 346 349 348 346 347 346 347 349 347 347 347 345 343 342 342 343
352 353 356 357 359 359 359 358 354 351 351 350 350 350 352 349 347 343 345 348 347 348 348 347 346 349 347 349 347 349 349 350 348 347 345 349 348 347 347 346 346 342 342
354 356 356 357 359 360 359 357 355 350 347 349 349 349 354 352 347 343 345 346 348 348 348 349 349 347 346 346 349 348 345 345 348 346 349 346 347 351 349 349 348 346 342
357 357 358 360 359 359 359 355 355 345 350 351 351 351 352 350 348 347 345 346 348 349 347 351 348 348 346 347 346 349 348 347 349 346 347 347 347 345 347 352 350 349 345
357 361 363 362 361 361 358 358 354 342 350 353 353 352 352 352 349 345 345 343 348 348 347 346 343 347 348 348 348 347 346 349 350 348 347 349 348 348 347 350 349 346 349
357 363 364 361 362 364 361 356 351 349 350 352 353 350 351 351 351 346 344 343 348 347 345 342 342 345 347 347 347 350 353 350 347 350 348 350 348 348 349 349 348 345 345
359 363 367 362 367 367 363 360 346 341 350 355 353 351 351 351 350 349 347 346 344 342 341 341 340 344 345 346 348 349 353 353 348 348 348 348 347 348 343 342 349 349 348
358 364 367 364 368 366 362 355 348 352 354 354 353 351 352 350 350 351 349 347 346 342 341 341 341 344 342 346 348 346 345 346 347 349 344 347 349 349 349 347 348 348 349
358 366 364 366 362 358 361 356 356 356 355 354 354 351 351 350 349 349 349 349 349 348 345 343 344 346 345 345 344 345 346 345 347 348 349 348 348 346 343 343 347 347 347
365 366 364 354 353 351 356 356 355 358 354 353 351 352 350 349 348 348 348 349 350 349 347 346 347 344 344 345 343 343 348 347 348 349 350 350 349 341 340 340 342 342 345

GFSSE_925_thetae_084.txt.gz
Theta_e
351 349 348 346 349 351 351 345 340 338 337 336 338 339 340 345 350 349 352 351 350 351 352 352 352 351 350 350 350 349 348 349 348 348 349 348 349 349 347 347 346 346 348
348 349 347 346 352 355 354 347 342 340 340 339 339 342 338 345 349 351 352 352 352 352 352 351 352 350 348 348 350 348 347 349 350 347 349 349 348 349 347 344 348 347 347
349 348 347 347 351 355 353 350 343 344 344 343 343 347 346 349 349 351 351 351 352 351 351 352 352 348 346 350 348 348 349 347 346 347 344 344 348 350 349 343 346 347 347
347 348 349 349 354 354 352 348 344 345 346 350 349 348 349 351 350 349 352 351 352 352 352 353 351 348 344 351 349 348 344 343 346 344 344 345 346 346 346 349 340 342 347
347 346 347 348 353 353 352 347 346 347 351 352 350 347 351 351 351 352 351 350 353 351 352 351 348 347 343 346 343 344 344 344 345 344 340 340 345 347 344 348 339 340 345
346 344 344 345 352 354 347 347 348 349 352 352 351 350 347 350 349 352 352 351 351 351 352 351 348 349 342 344 342 342 343 345 345 347 349 334 323 338 344 344 341 345 344
343 341 339 340 350 353 352 352 350 351 351 350 352 350 345 346 348 346 349 352 351 351 352 348 347 347 340 341 339 341 343 346 348 344 339 334 337 338 347 348 347 347 344
336 338 339 337 338 340 344 346 348 351 352 352 353 352 351 347 348 346 346 348 351 350 350 349 349 348 340 336 338 339 341 346 346 342 339 338 340 341 348 344 341 335 338
337 336 336 338 337 340 348 351 348 351 352 352 349 345 349 350 345 345 347 345 350 347 348 349 352 346 345 336 336 339 339 342 345 347 341 340 338 334 338 341 341 334 342
338 338 340 344 343 339 344 346 345 347 351 352 350 345 345 350 352 348 344 343 346 349 351 351 348 348 341 338 335 336 337 339 342 347 348 343 339 336 334 333 330 330 332
344 340 340 343 344 340 339 340 343 348 351 350 350 353 353 351 352 350 344 343 347 347 351 348 350 345 340 337 334 336 341 339 347 346 346 345 337 334 337 328 336 341 331
349 344 341 342 341 340 340 342 343 347 343 347 349 349 349 346 345 346 346 344 350 349 349 348 346 346 342 336 335 337 340 339 345 347 346 345 338 335 335 330 328 334 337
350 350 347 344 344 345 344 342 343 342 343 343 344 345 347 347 345 347 349 348 348 352 350 350 348 347 345 338 337 338 339 340 341 345 346 344 339 337 335 337 338 330 329
354 353 351 348 350 350 351 351 347 344 344 344 345 349 350 348 342 347 347 348 347 348 348 346 344 344 345 342 340 347 347 345 344 346 345 345 343 342 339 335 338 336 329
354 353 353 350 349 349 351 354 352 348 348 350 351 349 350 346 345 347 347 348 348 348 348 343 344 345 344 344 345 347 348 346 346 347 346 345 344 343 341 339 338 336 333
353 353 352 352 350 349 351 354 354 349 349 351 351 350 347 344 344 344 347 348 348 348 347 346 348 348 348 348 347 348 346 347 348 348 347 346 345 344 344 344 342 341 342
348 352 353 352 351 351 352 352 351 350 351 352 352 350 347 343 343 343 345 347 347 348 348 347 349 348 348 348 349 348 348 347 348 349 348 348 347 345 345 345 344 343 342
349 350 353 352 352 352 352 353 352 347 348 348 351 350 348 346 340 339 341 343 347 347 348 350 349 349 348 347 347 348 350 348 348 347 347 346 345 348 347 346 345 345 344
349 350 352 352 352 352 351 352 352 350 349 349 350 349 350 350 349 349 346 343 346 347 347 347 347 348 347 347 348 348 347 347 347 348 348 347 347 347 345 348 347 345 345
350 350 351 351 351 352 352 353 352 347 348 347 344 346 346 349 350 349 350 347 344 347 346 347 345 345 345 345 347 347 347 346 347 348 346 345 346 348 348 349 348 347 346
351 352 353 353 353 355 355 356 355 352 350 346 341 346 348 349 349 350 350 346 343 347 347 345 347 348 348 346 345 345 344 346 345 345 347 347 347 347 347 348 347 347 348
354 353 354 354 355 356 357 357 356 353 351 346 342 347 351 351 351 349 347 345 344 346 347 347 348 348 347 347 347 344 342 343 345 346 346 348 348 347 347 347 346 347 346
355 354 354 355 356 357 357 358 356 354 352 351 346 349 352 351 350 349 347 345 344 346 347 347 346 343 344 346 347 343 341 341 340 345 347 348 348 347 344 343 344 344 342
355 355 355 356 356 358 358 359 356 354 350 349 344 349 351 350 350 349 346 344 344 344 346 346 345 342 341 344 345 345 345 343 339 339 342 346 347 343 343 343 345 346 344
356 356 356 358 359 361 360 359 357 356 354 347 342 345 351 350 349 348 347 345 342 343 345 345 343 341 341 340 341 341 343 345 345 341 341 342 345 345 345 346 346 346 346
360 357 358 362 362 361 360 360 360 349 349 351 353 352 352 350 350 348 349 347 343 342 344 343 341 341 341 341 344 343 343 343 343 343 342 342 343 340 341 341 342 342 344

GFSSE_925_thetae_087.txt.gz
Theta_e
349 349 354 354 356 353 351 349 349 350 351 351 351 351 351 351 351 351 351 351 352 351 351 352 350 350 352 351 352 350 348 348 347 347 348 349 348 349 346 347 348 345 344
348 351 351 353 356 356 351 345 342 344 349 351 349 349 351 351 352 352 353 352 352 353 352 352 350 349 350 348 347 348 349 349 350 348 346 349 349 347 347 346 348 348 348
348 349 349 350 354 356 351 343 340 341 347 347 348 348 351 351 352 351 352 352 353 352 351 351 349 347 348 349 348 348 350 349 347 349 347 347 346 347 345 349 348 346 348
346 348 348 350 354 355 353 345 344 343 346 343 347 348 351 351 351 351 351 352 351 351 352 352 347 347 351 348 349 348 347 346 346 347 344 347 349 348 344 346 347 347 345
347 347 346 349 354 353 353 350 349 348 349 349 349 348 351 351 352 352 351 352 351 352 352 350 348 349 350 349 349 349 349 347 345 343 344 344 344 347 348 340 345 347 338
347 347 350 351 355 354 353 347 349 350 352 351 351 351 351 351 351 350 352 353 351 352 352 348 348 349 350 349 347 344 343 343 346 342 343 344 343 343 348 341 341 346 343
346 346 346 346 354 354 352 352 350 351 350 350 351 352 352 351 352 353 347 351 351 351 351 348 348 350 350 347 344 343 343 346 347 347 347 334 339 337 342 338 343 344 345
345 347 346 349 347 349 351 352 351 352 351 351 352 352 352 352 352 352 352 351 350 352 349 347 346 349 348 343 340 342 345 348 344 341 339 331 337 344 349 348 347 347 338
347 345 346 353 353 351 353 353 353 352 351 352 353 351 352 352 352 352 350 352 349 348 350 349 347 347 343 340 340 342 343 347 345 338 337 338 345 348 350 345 340 336 336
345 343 341 343 348 349 349 346 351 353 352 352 352 351 351 352 351 352 349 347 352 344 350 350 351 344 340 336 338 341 340 342 344 343 338 339 340 345 348 348 342 337 341
347 344 342 341 345 344 346 351 351 353 353 353 352 351 351 349 350 350 347 346 351 351 351 351 350 349 342 339 338 339 339 339 346 347 346 346 340 335 341 347 339 334 334
348 345 343 341 343 345 349 347 345 348 351 352 350 351 348 346 346 348 346 345 352 352 352 351 351 346 341 340 341 339 340 339 346 346 345 347 342 334 338 331 334 339 334
342 344 343 342 345 343 344 341 342 341 346 348 350 349 346 344 343 343 344 344 348 351 351 350 347 346 341 336 337 338 339 341 342 345 346 345 343 339 337 335 334 340 341
348 342 341 342 345 344 344 342 342 340 341 344 345 345 346 347 345 344 345 347 346 348 349 349 345 344 345 340 338 338 340 342 340 343 345 345 343 341 340 337 335 335 343
349 346 345 342 343 344 345 344 343 342 342 341 342 344 347 350 346 342 345 346 347 346 348 347 346 345 344 345 342 341 347 346 345 346 346 345 340 340 342 341 336 339 338
352 351 350 347 346 347 348 348 348 348 346 345 347 349 349 349 346 344 345 346 347 348 347 347 342 345 345 343 343 345 347 347 347 346 346 345 344 343 343 343 342 340 338
353 353 352 351 349 349 349 349 352 350 349 348 349 351 350 348 344 344 345 346 347 347 347 347 345 347 347 348 347 347 347 347 346 347 347 347 345 345 344 343 344 344 342
352 353 352 352 350 348 349 350 352 350 342 350 351 349 349 348 345 346 344 344 346 347 346 347 346 347 348 348 348 347 347 347 347 347 348 348 348 347 346 345 344 345 344
349 351 352 352 352 350 350 352 351 351 341 349 348 350 350 348 345 341 340 340 342 346 347 346 346 348 348 348 347 347 347 349 348 348 348 347 347 346 346 347 346 346 345
347 348 350 351 352 351 351 352 352 352 348 349 348 349 349 348 347 348 348 348 342 343 347 348 347 347 348 348 346 347 347 347 346 346 347 348 346 346 347 348 348 348 347
348 349 350 352 352 352 352 353 352 352 351 348 347 347 342 345 345 348 348 349 347 344 345 347 346 346 346 345 346 346 345 345 345 345 345 346 346 346 346 346 346 347 347
348 350 351 351 352 352 353 352 353 352 349 349 348 343 341 346 349 349 349 350 349 346 344 345 346 346 346 346 345 343 341 342 343 345 345 344 345 348 347 347 346 346 347
349 350 351 351 352 352 352 353 354 353 352 351 350 348 345 347 350 350 350 348 346 344 344 345 345 345 347 346 346 342 340 341 339 343 345 346 347 347 347 346 345 344 344
350 351 351 352 353 353 353 355 355 356 353 353 352 351 345 349 348 350 349 347 346 344 345 345 345 345 344 345 345 345 343 342 338 338 342 345 347 346 344 342 344 344 343
350 351 352 353 354 355 355 356 356 356 355 353 348 343 346 349 350 349 348 347 344 344 344 345 345 344 343 340 343 342 344 344 343 338 338 339 343 344 344 343 344 345 345
352 352 353 354 356 356 356 356 357 356 354 350 348 353 350 347 349 349 348 346 345 343 343 344 344 344 341 340 340 340 340 342 342 342 338 339 341 341 342 341 342 342 342

GFSSE_925_thetae_093.txt.gz
Theta_e
350 351 351 352 351 352 351 352 352 351 350 347 346 346 345 350 352 352 351 350 349 351 352 352 350 350 350 350 350 351 350 351 350 349 348 347 347 350 349 349 347 347 348
351 352 350 352 351 352 352 351 351 350 351 350 349 351 351 351 352 349 348 351 350 353 351 352 351 351 351 351 351 351 351 350 350 350 349 349 349 349 347 342 342 342 345
352 353 352 352 350 351 351 351 349 352 351 351 349 351 352 351 351 347 348 351 352 352 351 349 352 351 350 349 349 350 349 348 350 348 349 343 343 348 350 349 345 347 349
352 354 352 352 352 351 351 351 350 351 350 350 350 348 351 350 351 349 349 348 349 351 350 349 352 347 347 346 347 350 349 348 349 349 347 341 341 347 348 349 350 348 341
353 353 354 351 352 352 349 348 349 351 351 349 350 347 350 350 351 351 351 347 352 350 348 347 349 350 347 350 349 349 350 349 348 346 348 345 340 348 349 348 346 348 346
354 352 355 353 352 352 351 348 348 349 351 350 351 351 351 351 351 350 352 351 352 348 348 348 351 348 350 348 348 347 348 349 344 346 347 347 342 341 347 347 349 347 346
353 352 355 352 353 352 351 351 350 351 351 351 351 351 350 351 351 351 351 352 351 351 348 350 350 348 349 349 350 349 349 349 343 342 345 345 345 346 342 347 348 341 345
352 352 354 354 352 353 353 352 351 353 352 351 351 348 350 351 347 351 351 351 350 351 348 349 350 351 350 350 350 346 349 350 346 345 344 344 341 347 345 340 346 346 345
352 352 354 356 355 353 355 353 352 352 352 352 352 349 349 348 347 351 351 351 351 350 348 348 350 350 350 349 345 344 347 346 347 347 346 340 334 342 344 342 345 347 347
352 352 353 356 356 355 354 354 351 352 353 352 352 348 347 347 348 348 348 347 349 350 347 347 349 349 350 344 342 344 346 346 344 344 344 340 336 341 347 347 346 346 341
352 352 353 353 355 357 354 354 351 352 353 353 353 349 349 351 351 351 350 347 351 348 348 348 348 349 347 346 342 342 342 347 348 344 344 341 340 341 346 346 345 344 340
350 351 352 352 352 354 352 354 355 353 351 352 354 350 351 351 351 349 350 345 346 351 350 349 350 344 343 345 344 342 346 347 348 348 347 342 341 341 345 346 346 343 343
348 350 351 351 352 352 352 354 352 353 354 355 352 350 351 351 350 350 351 350 350 348 350 349 347 347 344 346 345 346 347 347 346 348 347 345 346 345 342 342 344 342 339
347 349 350 350 352 352 352 351 352 351 353 354 352 351 351 350 350 350 349 349 350 347 350 351 347 349 348 347 344 345 345 345 344 347 347 343 344 346 345 342 343 340 336
346 347 349 350 350 350 349 349 350 351 350 350 351 351 351 350 346 348 341 346 347 348 345 344 350 348 348 348 346 344 342 343 344 346 347 345 345 345 344 340 342 341 335
346 347 348 349 349 349 347 349 350 351 350 349 350 350 346 343 346 346 345 346 348 349 348 347 349 349 348 347 347 347 344 344 347 348 346 349 345 344 343 341 342 342 341
349 348 348 348 349 348 347 348 348 348 349 348 347 341 343 343 346 349 350 348 346 349 347 347 351 350 347 347 347 347 346 347 349 350 348 349 349 345 344 341 340 342 343
350 350 349 347 348 349 348 346 347 348 349 349 347 342 342 344 346 348 347 348 348 348 348 349 346 350 348 349 348 348 346 347 349 348 349 349 349 349 348 344 341 342 343
351 352 351 349 348 349 347 347 347 349 350 350 350 345 342 346 347 346 347 346 343 348 349 350 346 346 349 349 350 347 349 349 350 349 350 350 350 350 350 349 346 346 345
352 353 353 352 349 349 349 349 349 351 352 353 353 351 347 348 347 347 347 345 343 347 348 348 349 349 349 350 349 347 348 349 350 349 349 349 350 351 351 352 351 350 346
353 354 354 354 353 352 352 351 351 351 352 353 354 349 347 348 348 348 348 346 344 343 344 347 345 345 348 349 348 346 346 348 349 348 349 349 348 349 350 350 350 351 349
352 354 355 355 355 353 353 352 352 352 353 353 353 352 349 349 349 349 348 348 347 346 346 347 347 348 348 347 345 347 347 346 347 347 347 349 348 349 349 350 351 349 347
350 353 353 353 355 353 352 353 353 352 350 350 352 352 350 349 348 346 346 347 345 347 348 348 348 348 347 348 347 344 347 346 346 346 347 348 349 348 349 349 349 349 347
350 349 351 353 353 354 353 353 352 352 352 353 353 353 350 347 346 344 342 344 346 349 348 349 348 348 348 347 348 347 346 346 347 348 346 348 348 347 345 346 345 346 345
349 347 350 351 351 352 354 353 354 354 353 351 350 350 351 351 350 350 349 348 348 348 348 347 346 345 347 347 347 347 347 346 346 346 347 345 346 346 343 344 345 345 345
349 349 351 352 352 352 354 354 354 354 353 352 351 351 347 345 348 351 350 349 349 350 347 346 346 345 347 346 346 346 347 347 346 347 347 346 345 346 343 344 344 345 344

GFSSE_925_thetae_096.txt.gz
Theta_e
348 351 352 351 352 352 353 353 351 348 348 345 341 341 345 349 351 352 352 353 349 353 349 346 352 351 350 350 346 349 352 352 351 350 351 350 350 349 350 346 349 347 349
349 350 351 350 350 352 352 352 352 352 352 347 347 346 345 352 352 352 352 351 353 353 352 352 352 352 352 352 353 352 351 350 350 350 351 351 350 345 348 347 345 345 349
349 351 351 350 351 352 352 351 349 351 352 351 350 351 352 353 353 350 349 353 353 352 352 352 352 352 352 352 352 352 351 351 351 351 344 342 345 349 345 343 336 345 345
349 350 350 350 350 351 350 351 352 352 352 351 351 351 350 351 350 349 350 352 349 353 350 352 352 351 351 350 351 349 349 350 349 341 339 338 339 350 350 349 348 349 348
350 350 351 350 350 352 349 349 348 348 348 351 352 352 349 347 347 347 350 347 348 350 350 352 349 348 348 350 350 350 349 350 346 349 342 339 342 343 350 349 348 340 344
350 350 353 351 351 352 351 349 352 351 348 349 349 351 352 352 352 349 347 349 352 351 347 349 351 349 351 351 350 349 347 345 346 343 344 342 341 343 347 348 343 346 345
350 350 354 350 351 351 351 351 352 352 351 351 351 351 352 352 352 348 353 353 348 351 347 351 350 351 349 348 347 346 348 340 343 343 344 343 346 335 335 349 344 344 346
350 351 353 353 351 350 352 352 352 352 352 351 353 352 352 351 351 347 352 349 348 349 349 351 349 351 350 351 350 350 350 345 344 343 344 344 342 345 333 349 345 342 346
350 351 354 354 355 352 352 353 352 353 353 352 352 352 352 351 352 352 351 351 347 350 349 351 352 349 350 350 344 345 348 347 349 344 342 341 333 347 334 337 342 344 344
350 351 352 354 354 355 354 352 351 351 352 353 353 349 349 351 348 351 349 350 352 351 347 350 352 351 351 345 344 344 346 343 345 343 343 341 335 340 347 346 345 346 341
351 351 351 352 353 355 353 353 350 350 352 353 353 349 349 352 351 351 349 346 349 351 347 349 351 350 347 344 344 344 345 346 343 342 343 343 339 339 346 347 345 345 344
350 351 350 351 353 353 351 353 352 351 352 350 352 352 351 350 350 350 351 346 350 350 348 348 348 348 343 345 343 342 346 345 344 345 346 345 341 341 339 346 344 342 340
349 350 350 350 352 352 349 350 350 351 351 350 353 351 351 350 350 348 350 347 349 349 348 345 349 343 343 342 343 343 346 346 344 344 347 345 345 345 342 343 344 343 338
349 349 350 351 351 350 350 350 351 349 351 351 352 351 351 351 350 349 349 350 350 349 350 347 343 342 342 343 344 344 347 346 344 345 348 346 344 345 346 343 341 341 337
349 350 351 352 352 351 352 350 350 349 351 352 352 352 350 350 350 350 350 348 348 349 350 352 349 345 346 344 344 343 345 345 345 345 346 348 345 345 345 345 342 344 342
349 351 351 352 352 352 352 351 351 350 349 351 350 350 352 350 353 348 349 346 348 349 348 349 349 347 345 344 344 344 344 344 345 345 346 348 348 344 343 343 342 342 343
349 350 351 353 352 352 352 352 351 350 350 350 349 351 352 353 352 350 350 347 348 350 350 351 351 349 348 345 344 344 345 344 344 346 347 347 349 349 344 343 342 342 343
348 351 352 352 352 352 351 351 350 349 349 349 348 349 352 352 351 352 350 349 348 349 350 350 351 349 348 347 346 345 344 344 345 349 349 347 347 348 350 347 344 342 341
351 352 353 353 352 353 352 351 351 350 350 349 350 350 351 351 351 352 351 348 350 349 350 350 350 349 348 347 347 348 347 344 345 347 349 348 348 348 348 351 349 347 345
352 354 355 355 353 354 354 353 350 349 350 351 351 352 353 348 352 352 350 350 350 348 348 348 348 349 349 348 347 350 349 348 346 346 348 348 348 350 350 350 352 352 350
352 354 356 356 356 355 355 354 351 349 350 352 352 353 355 354 353 354 350 350 352 349 348 349 350 350 348 348 350 347 348 348 347 348 347 348 348 350 350 351 353 351 351
352 355 357 357 358 357 356 355 353 351 350 352 353 354 353 353 354 354 352 350 351 349 350 350 351 349 347 347 350 345 347 346 346 347 347 348 348 348 348 350 352 352 353
352 355 357 358 359 359 356 356 356 355 355 355 356 356 356 354 355 355 354 353 351 352 349 351 351 351 350 348 349 346 347 346 344 345 347 347 348 348 349 349 351 352 352
353 355 357 360 360 361 359 356 357 356 356 355 355 355 355 357 356 355 354 353 353 351 350 350 350 350 351 351 349 348 346 349 346 353 348 349 351 352 351 349 350 350 350
352 353 358 360 361 360 361 357 358 357 354 355 355 355 357 356 356 353 352 352 352 352 352 353 352 353 351 351 350 348 348 348 346 346 355 350 349 349 350 348 346 347 348
352 352 355 360 362 361 360 360 359 359 357 357 357 355 354 355 356 354 354 355 353 354 353 352 352 351 350 350 350 347 348 348 347 345 346 346 347 346 348 346 346 346 348

GFSSE_925_thetae_102.txt.gz
Theta_e
351 353 349 349 352 350 346 346 345 347 345 345 345 345 352 352 350 349 353 349 348 351 351 351 349 346 345 346 345 342 344 342 341 336 349 346 346 348 346 346 342 346 344
352 353 347 348 350 352 348 346 347 348 346 344 343 345 352 351 351 353 353 353 353 348 352 352 351 352 348 351 352 352 349 342 343 350 351 349 351 348 348 348 346 349 346
351 353 352 346 350 354 353 348 347 348 350 346 346 349 352 353 352 352 353 354 353 353 352 353 352 353 351 352 352 351 342 339 347 349 346 344 347 347 344 338 350 349 346
352 353 353 348 348 350 353 353 351 353 353 351 350 350 351 353 352 351 353 352 352 353 353 353 353 353 352 349 352 349 339 342 345 349 347 343 341 345 348 338 336 346 346
351 350 353 346 348 348 348 352 352 352 353 353 353 352 353 353 353 352 353 349 352 353 353 352 353 352 352 350 348 347 337 339 343 348 351 346 346 345 342 343 344 345 347
349 350 347 342 346 352 346 345 351 352 352 352 352 353 352 353 351 352 349 353 352 350 354 351 351 349 351 352 343 336 336 343 348 352 343 345 345 345 349 349 348 347 341
349 353 348 343 344 349 352 351 352 350 351 352 354 351 350 350 349 350 347 353 351 348 353 351 348 352 352 351 347 339 341 345 349 345 347 347 342 340 351 348 348 342 335
355 352 351 350 348 348 351 352 351 349 348 351 353 353 352 353 353 348 349 352 353 347 351 352 351 352 352 349 340 334 343 345 350 345 347 344 330 340 350 342 343 342 337
355 352 352 353 354 353 353 353 352 349 351 351 351 353 353 352 352 354 353 350 352 349 351 351 351 350 348 346 338 331 342 344 349 348 348 343 325 325 348 341 335 345 346
354 352 352 353 353 353 352 351 347 351 348 353 353 352 352 353 352 350 351 347 352 349 353 352 351 350 351 349 343 337 338 343 347 349 347 336 331 326 334 340 338 343 343
354 352 352 353 353 352 351 351 349 350 353 352 354 354 353 349 353 351 351 346 352 349 351 353 349 351 348 342 340 340 339 341 349 349 341 335 326 332 341 343 345 345 342
349 353 353 354 356 354 352 351 351 353 353 352 350 352 351 351 351 351 348 347 350 352 348 352 352 349 343 344 340 340 337 348 350 345 340 340 340 334 339 344 345 347 344
348 349 352 354 355 354 352 352 351 352 351 349 350 349 352 350 349 351 350 351 347 352 345 349 352 351 348 348 345 338 339 345 345 348 344 341 343 344 339 339 341 340 340
349 348 349 356 355 353 354 353 352 352 352 352 350 351 351 351 349 351 350 351 351 349 349 341 346 347 346 344 344 345 345 343 345 348 344 342 343 343 344 342 341 341 340
350 349 348 354 355 352 352 353 351 350 351 350 352 350 352 353 351 352 350 350 350 349 348 344 344 342 341 343 342 345 344 345 346 348 346 346 345 343 343 344 344 342 342
351 350 350 353 355 349 353 352 348 352 350 352 354 350 351 351 351 347 350 351 351 349 350 350 349 348 344 344 343 343 344 345 346 346 349 348 347 345 343 343 343 343 342
351 351 352 352 354 355 354 353 354 353 351 352 350 351 347 351 352 350 350 349 348 350 347 347 348 350 348 347 344 343 343 344 344 346 346 349 347 347 348 344 343 342 342
352 351 353 353 355 353 355 354 355 351 351 352 349 352 351 349 353 351 351 351 348 349 348 348 346 346 349 345 345 346 344 344 345 344 345 347 349 348 349 348 347 344 343
352 353 354 353 356 356 356 356 354 351 352 349 351 348 353 353 349 353 352 351 348 347 348 347 350 346 350 350 346 346 347 346 345 345 346 345 346 350 348 348 348 347 346
353 355 356 356 358 358 357 356 354 354 352 352 349 350 350 351 353 354 352 353 349 348 349 350 345 346 346 350 350 348 345 345 346 348 348 346 344 347 347 350 349 349 349
354 358 358 359 359 359 358 356 357 354 353 351 351 349 350 350 350 350 354 353 347 339 349 349 349 347 347 347 350 349 349 347 349 347 346 348 348 347 349 348 350 351 351
354 358 359 360 360 360 359 358 357 355 353 352 350 351 351 351 354 351 353 353 351 350 349 349 349 350 348 347 349 348 353 349 351 347 348 348 345 346 348 351 350 348 351
353 359 360 361 361 362 359 359 357 355 352 351 351 353 352 353 355 354 353 351 350 351 351 348 350 349 349 350 350 347 353 353 349 349 347 348 345 346 346 346 346 349 350
354 358 361 362 363 363 360 360 359 359 355 353 351 354 352 354 356 354 353 352 352 352 350 351 349 349 347 349 349 349 349 351 353 353 350 348 350 349 350 348 349 349 350
355 357 362 364 364 364 362 361 360 358 356 353 353 353 357 356 355 354 355 353 351 353 352 351 353 352 351 350 348 350 349 351 350 351 352 351 347 348 350 351 351 352 350
355 359 362 365 366 366 362 363 361 360 358 358 355 359 358 356 355 354 352 348 347 350 351 352 353 352 351 350 351 352 350 351 351 350 350 350 350 350 351 351 350 350 350

GFSSE_925_thetae_105.txt.gz
Theta_e
351 345 350 351 350 348 349 347 351 348 342 340 343 344 340 346 346 343 345 348 349 348 350 350 349 349 342 340 340 343 343 342 343 339 345 348 343 347 347 342 343 346 348
350 351 350 349 353 352 346 345 348 345 342 343 345 351 344 349 347 349 351 351 351 351 350 349 349 350 347 343 342 341 342 340 343 343 348 351 346 345 347 351 343 346 346
349 351 351 351 351 353 347 346 347 348 349 343 347 345 349 347 351 349 352 353 350 353 352 352 352 347 352 351 345 336 344 345 347 344 340 346 347 349 349 350 348 347 349
349 349 351 351 350 347 348 349 350 353 352 351 349 349 351 351 349 352 353 353 352 352 353 353 353 352 352 349 336 336 341 346 343 348 340 344 347 347 347 350 349 341 344
351 352 350 351 351 350 347 347 350 351 352 352 350 352 353 352 352 353 352 353 352 352 352 353 353 352 350 346 334 338 343 346 343 346 348 340 332 348 344 343 344 347 346
351 352 351 351 353 352 349 349 349 349 348 351 351 352 353 353 353 353 350 353 352 352 352 353 352 351 352 339 337 336 338 343 348 349 348 346 339 339 349 350 350 348 344
352 348 345 344 344 344 345 346 347 348 350 349 352 352 352 353 352 352 352 352 350 353 350 351 349 350 352 334 332 336 341 345 348 349 347 342 338 345 349 347 343 336 341
350 343 340 339 342 351 351 350 349 352 351 352 353 352 352 352 352 352 352 352 349 350 351 346 352 352 349 337 337 339 342 345 350 349 346 343 337 339 347 348 344 337 329
350 343 343 341 349 353 353 349 344 344 351 352 351 352 349 352 352 352 352 352 349 348 351 351 352 351 347 333 332 339 342 344 350 348 346 338 328 342 342 339 339 336 340
346 343 343 340 345 348 351 352 350 346 348 349 353 352 352 351 352 353 349 349 350 351 348 351 350 346 336 332 329 333 340 343 346 350 346 330 322 326 342 332 343 341 346
350 347 349 346 346 345 347 350 351 352 350 353 353 352 353 350 351 352 348 349 350 350 352 351 352 339 340 339 336 334 337 341 348 349 341 334 328 326 330 335 338 342 343
351 351 350 348 348 349 348 347 347 353 353 347 351 352 349 346 349 347 349 347 352 348 351 352 346 346 341 339 339 337 335 341 349 348 344 331 326 329 333 337 342 343 342
352 352 351 347 347 350 352 349 346 349 349 349 349 348 346 350 350 350 350 350 351 349 346 350 349 346 338 340 341 338 334 341 346 347 338 335 336 335 334 331 337 346 342
352 352 352 349 350 349 352 351 345 350 349 349 350 348 348 350 350 350 349 348 347 349 340 345 348 345 341 345 348 347 340 342 346 345 342 341 342 343 342 340 335 335 335
350 353 354 352 350 350 354 352 347 348 350 350 349 349 349 349 346 349 349 349 347 347 346 341 339 340 340 344 345 344 345 345 347 346 345 342 343 343 344 343 341 340 338
347 352 355 354 351 350 353 353 349 349 351 352 351 349 348 350 349 349 350 349 350 349 347 349 342 343 341 342 344 343 345 344 346 346 346 343 343 343 343 343 343 342 341
349 349 356 354 353 349 352 354 351 351 352 341 351 351 348 351 351 350 350 349 349 350 348 347 346 346 349 343 343 343 342 343 344 345 348 347 347 346 345 344 343 342 342
350 349 357 355 354 352 349 355 352 353 352 346 348 347 348 350 351 351 351 350 349 348 349 347 346 347 348 349 347 343 343 340 341 344 345 349 348 347 347 347 346 344 343
350 349 355 357 354 350 351 353 353 353 353 351 349 344 342 348 353 350 350 350 349 348 348 347 346 343 346 347 346 345 345 344 344 342 342 344 347 348 349 349 348 347 346
351 350 352 354 356 354 353 353 353 352 351 351 353 351 350 349 351 350 350 350 350 348 348 347 348 345 346 344 348 348 347 347 345 345 344 345 346 344 345 347 348 348 347
351 351 352 354 355 353 355 356 354 354 350 352 351 352 352 351 351 350 348 350 352 348 345 346 347 345 344 347 349 348 349 348 347 347 347 348 346 345 345 349 350 349 349
352 352 353 354 355 355 355 355 355 352 354 350 351 352 350 348 351 350 348 351 351 351 343 347 349 349 346 346 347 347 344 346 347 347 349 347 346 347 345 347 348 348 349
354 354 355 355 357 357 356 356 356 355 352 353 351 350 353 350 350 350 350 349 353 351 347 348 350 350 349 347 346 346 344 344 345 345 347 349 347 348 346 345 350 350 349
355 355 356 357 358 358 357 357 355 356 353 353 351 351 351 352 351 351 353 350 351 351 350 350 350 348 350 349 349 349 347 348 345 345 349 349 348 346 346 346 350 348 347
354 357 357 358 359 359 358 358 357 355 355 353 352 350 353 354 352 353 354 352 351 349 350 349 349 350 349 349 348 346 348 348 348 346 345 345 348 350 349 348 347 347 349
354 358 358 359 359 361 359 359 358 357 357 354 353 350 353 354 354 356 355 354 352 349 347 346 348 350 350 349 348 348 347 349 348 347 344 344 345 347 348 351 350 350 350